Regional Weather Roundup
Issued by NWS Midland/Odessa, TX

Skip options and go directly to product.
Home | Oldest Version | Previous Version | Current Version | All | Text Only | Save Text | Print | Product List | Glossary Off

Skip product version selection by date and time.   

793
ASUS44 KMAF 011910
RWRMAF
MIDLAND AREA WEATHER ROUNDUP
NATIONAL WEATHER SERVICE MIDLAND TX
100 PM CST SUN FEB 01 2015

...IN SOUTHWEST TEXAS AND SOUTHEAST NEW MEXICO...

CITY           SKY/WX    TMP DP  RH WIND       PRES   REMARKS
ALPINE         MOSUNNY   60  37  41 NE8       30.13S
ANDREWS        CLOUDY    47  38  70 NE17      30.12S
ARTESIA        CLOUDY    46  41  81 N15       30.17S
BIG SPRING     CLOUDY    51  42  71 N15G23    30.12S
CARLSBAD       CLOUDY    51  38  60 N10       30.14S
DRYDEN           N/A     72  45  37 N5        29.99S
FORT STOCKTON  CLOUDY    55  47  74 NE12      30.09R
GUAD PASS      PTSUNNY   48  37  65 E21       30.11S
HOBBS          MOSUNNY   46  41  81 N21       30.13S WCI  39
MARFA          MOSUNNY   55  37  50 E6        30.10S
MIDLAND AIRPK  CLOUDY    50  41  70 NE15      30.12S
MIDLAND INTL   CLOUDY    49  41  74 NE14      30.10R
ODESSA         CLOUDY    49  40  71 NE17      30.11S
PECOS          CLOUDY    55  43  66 N10G18    30.11S
PRESIDIO       FAIR      62  43  50 CALM      30.06F
SEMINOLE       PTSUNNY   46  37  71 NE14G22   30.13F WCI  40
SNYDER         PTSUNNY  N/A N/A N/A N24       30.13R
WINK           PTSUNNY   54  39  57 NE14      30.10S
$$
...OTHER STATIONS IN TEXAS...

CITY           SKY/WX    TMP DP  RH WIND       PRES   REMARKS
ABILENE        CLOUDY    48  38  68 N24G31    30.10R
AMARILLO       MOSUNNY   38  25  59 N24G32    30.17S WCI  27
AUSTIN         PTSUNNY   70  57  63 NW14      29.93S
BROWNSVILLE    MOSUNNY   77  62  59 S18       29.90F
CORPUS CHRISTI PTSUNNY   77  60  55 SW12      29.92F
DALLAS FTW     MOSUNNY   53  40  61 NW22G30   30.00R
DEL RIO        MOSUNNY   67  55  65 NW9       29.97F
EL PASO        MOSUNNY   55  41  59 N10       30.09F
HOUSTON INT    PTSUNNY   77  60  55 SW9G18    29.89F
LUBBOCK        PTSUNNY   44  33  65 N20G25    30.13S WCI  36
SAN ANGELO     CLOUDY    54  45  71 N17       30.07R
SAN ANTONIO    MOSUNNY   73  59  61 NW9       29.93F
WACO           CLOUDY    58  50  75 N18G28    29.98R
WICHITA FALLS  NOT AVBL
$$
...OTHER LOCATIONS IN NEW MEXICO...

CITY           SKY/WX    TMP DP  RH WIND       PRES   REMARKS
ALAMAGORDO     SUNNY     55  37  50 NW8       30.10S
ALBUQUERQUE    MOSUNNY   45  31  58 NW7       30.15F
CANNON AFB     NOT AVBL
CLOVIS         SUNNY     43  28  56 NE23G29   30.14F WCI  33
HOLLOMAN AFB   SUNNY     54  39  57 NW13      30.08F
ROSWELL        CLOUDY    48  35  60 N13       30.16S
RUIDOSO        PTSUNNY   37  32  81 SE13      30.15F WCI  29
SANTA FE       MOSUNNY   35  30  82 N5        30.13F WCI  31
TRUTH OR CONSE SUNNY     50  36  58 E6        30.12F
TUCUMCARI      CLOUDY    44  29  55 NE10      30.14F WCI  39
$$

USA.gov is the U.S. government's official web portal to all federal, state and local government web resources and services.